Regional Weather Roundup
Issued by NWS

Home | Current Version | Previous Version | Graphics & Text | Print | Product List | Glossary On
Versions: 1 2 3 4 5 6 7 8 9 10 11 12 13 14 15 16 17 18 19 20 21 22 23 24 25 26 27 28 29 30 31 32 33 34 35 36 37 38 39 40 41 42 43 44 45 46 47 48 49 50
000
ASUS43 KMKX 011100
RWRWI

WISCONSIN REGIONAL WEATHER ROUNDUP
NATIONAL WEATHER SERVICE MILWAUKEE/SULLIVAN WI
600 AM CDT TUE SEP 01 2015

NOTE: "FAIR" INDICATES FEW OR NO CLOUDS BELOW 12,000 FEET WITH NO
SIGNIFICANT WEATHER AND/OR OBSTRUCTIONS TO VISIBILITY.

WIZ001-002-006>008-014>016-023>028-011200-
NORTHWEST WISCONSIN

CITY           SKY/WX    TMP DP  RH WIND       PRES   REMARKS
SUPERIOR ARPT  CLOUDY    70  69  98 CALM      29.88R FOG
ASHLAND        MOCLDY    71  71 100 SW5       29.91R FOG
HAYWARD        MOCLDY    70  68  93 S6        29.93F FOG
SIREN          MOCLDY    70  68  95 CALM      29.91S FOG
CUMBERLAND     FOG       66  66 100 S3        29.94F VSB 1/4
RICE LAKE      FOG       69  67  96 CALM      29.96R VSB<1/4
CHETEK         FOG      N/A N/A N/A CALM      29.95S VSB 1/2
LADYSMITH      CLOUDY    69  68  96 CALM      29.98S FOG
EAU CLAIRE     FOG       69  67  93 CALM      29.94S VSB 1
MENOMONIE      FOG       67  66  99 E5        29.94R VSB<1/4
NEW RICHMOND   MOCLDY    68  68  98 S5        29.93S FOG
OSCEOLA        MOCLDY    69  69 100 S5        29.94S FOG
$$

WIZ003>005-009-010-017-018-011200-
NORTH CENTRAL WISCONSIN

CITY           SKY/WX    TMP DP  RH WIND       PRES   REMARKS
MANITOWISH WTR CLOUDY    70  70 100 SW8       29.98R FOG
ARBOR VITAE    MOCLDY    69  68  96 CALM      29.99R FOG
WOODRUFF       MOCLDY    69  68  96 CALM      29.99R FOG
RHINELANDER    MOCLDY    69  67  93 SW7       30.01R FOG
EAGLE RIVER    PTCLDY    67  67 100 CALM      29.99S FOG
LAND O LAKES   CLOUDY    68  68  99 CALM      30.00S FOG
PHILLIPS       CLOUDY    69  69 100 SW3       29.98R FOG
TOMAHAWK       FOG       65  64  97 CALM      30.00R VSB 1
MEDFORD        CLEAR     66  66 100 SE5       29.99S FOG
MERRILL        FOG       60  60 100 CALM      30.00R VSB 1/2
$$

WIZ029-030-035-036-043>047-011200-
CENTRAL WISCONSIN

CITY           SKY/WX    TMP DP  RH WIND       PRES   REMARKS
WAUSAU         CLEAR     65  64  97 E5        29.98R FOG
MOSINEE        NOT AVBL
MARSHFIELD     FOG       66  63  90 S5        29.99S VSB 1/4
STEVENS POINT  PTCLDY    64  64  98 CALM      30.00R FOG
WAUPACA        CLEAR     64  64  97 CALM      29.99S FOG
WAUTOMA        MOCLDY    63  63 100 CALM      30.00R FOG
WISC RAPIDS    PTCLDY    67  65  93 CALM      30.00R FOG
CAMP DOUGLAS   NOT AVBL
$$

WIZ011>013-019>022-031-037>040-048>050-011200-
NORTHEAST WISCONSIN

CITY           SKY/WX    TMP DP  RH WIND       PRES   REMARKS
ANTIGO         MOCLDY    67  66  97 SW8       30.01S
SHAWANO        MOCLDY    68  66  95 CALM      29.99S FOG
OCONTO         CLEAR     61  61 100 CALM      29.99R
STURGEON BAY   CLEAR     66  63  88 S6        30.02S
GREEN BAY      CLEAR     67  65  93 S5        30.00R FOG
MANITOWOC      NOT AVBL
APPLETON       FOG       66  66 100 VRB3      29.99S VSB 1
CLINTONVILLE   FOG       61  61 100 CALM      29.99S VSB 1/4
OSHKOSH        CLEAR     69  66  90 S10       30.00R FOG
$$

WIZ032>034-041-042-053>061-011200-
SOUTHWEST WISCONSIN

CITY           SKY/WX    TMP DP  RH WIND       PRES   REMARKS
LA CROSSE      CLEAR     70  69  97 SE6       29.96R FOG
SPARTA         CLEAR     63  62  96 CALM      29.98S
VIROQUA          N/A     69  69 100 S5        30.00S
BOSCOBEL       FOG       65  64  97 CALM      29.99R VSB 1/4
PRAIRIE DU CHI CLEAR     68  66  94 CALM      29.98R FOG
PLATTEVILLE    CLEAR     69  69  99 S6        30.01R
$$

WIZ056-057-062-063-064-067-068-011200-
SOUTH CENTRAL WISCONSIN

CITY           SKY/WX    TMP DP  RH WIND       PRES   REMARKS
REEDSBURG      PTCLDY    71  69  95 S3        29.99R
BARABOO/DELLS  CLEAR     71  67  88 CALM      30.00R
LONE ROCK      NOT AVBL
MINERAL POINT  PTCLDY    70  68  94 S5        30.02R FOG
MADISON        PTCLDY    71  68  90 S6        30.01R FOG
MIDDLETON      CLEAR     72  70  94 SW3       30.01R
WATERTOWN      CLEAR     67  67 100 CALM      30.01R FOG
MONROE         CLEAR     70  68  94 S7        30.02R FOG
JANESVILLE     PTCLDY    72  70  94 CALM      30.01S FOG
$$

WIZ051-052-058>065-066-070>072-011200-
SOUTHEAST WISCONSIN

CITY           SKY/WX    TMP DP  RH WIND       PRES   REMARKS
MILWAUKEE      CLEAR     69  66  90 SW6       30.02S FOG
WAUKESHA       CLEAR     66  64  94 CALM      30.04R FOG
MILWAUKEE/TIMM CLEAR     64  61  88 CALM      30.03R FOG
RACINE         CLEAR     70  67  90 SW5       30.04S FOG
BURLINGTON     FOG       58  58  99 CALM      30.03R VSB 1/4
KENOSHA        CLEAR     69  67  93 SW5       30.04R
FOND DU LAC    PTCLDY    68  67  96 S5        30.01R FOG
SHEBOYGAN      CLEAR     62  61  96 S5        30.02R FOG
WEST BEND      FOG       63  61  94 CALM      30.02S VSB 1/2
JUNEAU           N/A     65  65  99 SE3       30.03R FOG
$$

LSZ147-162-011200-
LAKE SUPERIOR

STATION/POSITION TIME  TEMP    WIND        PRES    WAVE
                       AIR SEA DIR/SP/G            HT/PER
                 (UTC) (F)     (DEG/KT/KT) (MB)    (FT/S)
W MID LAKE BUOY  0950   60 54  200/ 10/ 10 1011.4S   1/ 3
DEVILS ISLAND    1000   72     210/  6/  7 1011.4S
PORT WING        1000   74     180/  6/  9 1011.9
SAXON HARBOR     1040   74     200/  3/  6 1012.2S
$$

LMZ867-665-643>646-011200-
LAKE MICHIGAN

STATION/POSITION TIME  TEMP    WIND        PRES    WAVE
                       AIR SEA DIR/SP/G            HT/PER
                 (UTC) (F)     (DEG/KT/KT) (MB)    (FT/S)
CHAMBERS ISLAND  1000   66     180/  3/  7 1015.2F
S GREEN BAY BUOY 1000   66 64  180/  4/  6 1016.7F
N MID LAKE BUOY  0950   64 65  200/ 14/ 16 1015.4F   2/ 4
NORTHPORT PIER   1000   65     160/  4/  6 1015.2F
KEWAUNEE LAKESHO 1000   51     160/  5/  6 1015.0F
SHEBOYGAN LAKESH 1000   56     160/ 10/ 11 1016.4F
PORT WASHINGTON  1000   56      CALM  /  1 1016.9
ATWATER BUOY     1000   57 50  160/  4/  6 1017.7F
MILWAUKEE LAKESH 1010   60      CALM  /  1   N/A
S MID LAKE BUOY  0950   71 69  170/  8/  8 1016.6F   0
KENOSHA   LAKESH 1000   66     200/  4/  7 1016.6S
$$

TC  - TEMPERATURE IN CELSIUS
VSB - VISIBILITY IN STATUTE MILES
WCI - WIND CHILL INDEX
HX  - HEAT INDEX




USA.gov is the U.S. government's official web portal to all federal, state and local government web resources and services.